[ hide orbit diagram ]
For accurate long-term ephemerides, please instead use our Horizons system.This orbit viewer was implemented using two-body methods, and hence should not be used for determining accurate long-term trajectories (over several years or decades) or planetary encounter circumstances.
Orbital Elements at Epoch 2459200.5 (2020-Dec-17.0) TDB
Reference: JPL 24 (heliocentric ecliptic J2000)
Element | Value | Uncertainty (1-sigma) | Units |
e | .3004329304966604 | 3.9785e-08 | |
a | 2.579740399754383 | 8.6735e-09 | au |
q | 1.804701431535547 | 1.0572e-07 | au |
i | 3.276355431048083 | 4.6538e-06 | deg |
node | 52.23512375011973 | 5.1963e-05 | deg |
peri | 22.70372741179744 | 5.253e-05 | deg |
M | 352.2909701981339 | 5.4815e-06 | deg |
tp | 2459232.908554293170 (2021-Jan-18.40855429) | 2.3039e-05 | TDB |
period | 1513.430333699973 4.14 | 7.6326e-06 2.09e-08 | d yr |
n | .2378702157501275 | 1.1996e-09 | deg/d |
Q | 3.354779367973218 | 1.1279e-08 | au |
|
| | Orbit Determination Parameters
Additional Information
|
[ show covariance matrix ]
Physical Parameter Table
Parameter |
Symbol |
Value |
Units |
Sigma |
Reference |
Notes |
absolute magnitude |
H |
14.76 |
|
n/a |
E2021B10 |
|
|
6597 Kreil | Discovered 1988 Jan. 9 by A. Mrkos at Klet. |
Karl Kreil (1798-1862), the sixth director of the Klementinum observatory in Prague, carried out geomagnetic measurements in the Austro-Hungarian empire. He was later director of the Central Institute for Meteorology and Geomagnetism in Vienna. The name was suggested by J. Ticha and M. Šolc. |
NOTE: some special characters may not display properly (any characters within {} are an attempt to place the proper accent above a character) |
Reference: 20010309/MPCPages.arc | Last Updated: 2009-05-11 |
|
[ show close-approach data ]
Alternate Designations
1988 AF1 = 1962 XK1 = 1984 BU |
|
|